Home > Weather > Weinheim > Past weeks

Flag for Germany Weather for the Past 2 Weeks in Weinheim, Baden-Württemberg, Germany

Now
34 °F

Overcast.


Feels Like: 30 °F
Forecast: 34 / 45 °F
Wind: 5 mph from Southeast

Location: Mannheim City

Current Time: Feb 12, 2016 at 7:19:11 AM

Latest Report: Feb 12, 2016 at 6:20 AM


Visibility: N/A

Pressure: 29.68 "Hg

Humidity: 93%

Dew point: 32 °F

Location of WeinheimLocation

Historic Weather in Weinheim — Graph

°F

Weinheim Temperature Yesterday

Maximum temperature yesterday: 45 °F (at 3:20 PM)
Minimum temperature yesterday: 39 °F (at 5:50 AM)
Average temperature yesterday: 41 °F

High & Low Weather Summary for the Past Weeks

 TemperatureHumidityPressure
High57 °F (Feb 1, 2:50 AM)100% (Jan 31, 8:50 AM)30.45 "Hg (Jan 31, 8:50 AM)
Low34 °F (Feb 12, 5:50 AM)50% (Jan 29, 1:50 PM)29.09 "Hg (Feb 9, 4:20 PM)
Average46 °F78%29.96 "Hg
* Reported Jan 28 5:50 AM — Feb 12 5:50 AM, Weinheim, Weather by CustomWeather, © 2016

Note: Actual official high and low records may vary slightly from our data, if they occured in-between our weather recording intervals... More about our weather records

Advertising

Weinheim Weather History for the Previous 24 Hours

 ConditionsComfort  
Time TempWeatherWind HumidityBarometerVisibility
5:50 AM
Fri, Feb 12
34 °FPassing clouds.3 mph93%29.68 "HgN/A
8:50 PM
Thu, Feb 11
41 °FPassing clouds.2 mph81%29.74 "HgN/A
8:20 PM41 °FPassing clouds.5 mph81%29.74 "HgN/A
7:50 PM41 °FPassing clouds.5 mph81%29.74 "HgN/A
7:20 PM41 °FClear.3 mph81%29.74 "Hg10 mi
6:50 PM41 °FPartly cloudy.5 mph76%29.74 "HgN/A
6:20 PM41 °FPassing clouds.5 mph76%29.74 "HgN/A
5:50 PM41 °FPartly cloudy.7 mph76%29.74 "HgN/A
5:20 PM41 °FBroken clouds.8 mph76%29.74 "HgN/A
4:50 PM43 °FMostly cloudy.9 mph71%29.74 "HgN/A
4:20 PM43 °FPartly sunny.9 mph71%29.74 "HgN/A
3:50 PM43 °FPartly sunny.8 mph71%29.71 "HgN/A
3:20 PM45 °FBroken clouds.10 mph66%29.74 "HgN/A
2:50 PM43 °FPartly sunny.9 mph76%29.74 "HgN/A
2:20 PM43 °FPartly sunny.8 mph76%29.74 "HgN/A
1:50 PM43 °FBroken clouds.8 mph76%29.74 "HgN/A
1:20 PM43 °FPartly sunny.9 mph76%29.74 "HgN/A
12:50 PM41 °FDrizzle. Broken clouds.8 mph81%29.74 "HgN/A
12:20 PM39 °FSprinkles. Partly sunny.13 mph81%29.77 "HgN/A
11:50 AM41 °FSprinkles. Partly sunny.10 mph76%29.77 "HgN/A
11:20 AM41 °FOvercast.8 mph76%29.77 "HgN/A
10:50 AM41 °FOvercast.8 mph76%29.77 "HgN/A
10:20 AM41 °FSprinkles. Overcast.8 mph76%29.77 "HgN/A
9:50 AM39 °FOvercast.8 mph81%29.74 "HgN/A
9:20 AM39 °FMore clouds than sun.8 mph81%29.74 "HgN/A
8:50 AM39 °FOvercast.9 mph81%29.74 "HgN/A
8:20 AM39 °FOvercast.7 mph87%29.74 "HgN/A
7:50 AM39 °FOvercast.6 mph87%29.74 "HgN/A
7:20 AM39 °FDrizzle. Overcast.6 mph87%29.71 "HgN/A
Weather by CustomWeather, © 2016

See weather overviewHow to use our weather pages